This demonstration page uses our WeatherBlox Daily Observations layout. Learn more.

39.92423, -83.80882

Hourly Observations for June 25, 2017

Temp ( °F °C ) Dew Point ( °F °C ) Humidity (%) Winds ( mph kmh ) Pressure ( in mb ) Visibility ( mi km ) Precip ( " mm )
12:56 am 00:56 Clear 62 16.7 51 10.6 67 67 WNW 10 17 30.08 1019 10 16.0934 0 0
1:56 am 01:56 Clear 61 16.1 49 9.4 65 65 W 9 15 30.09 1019 10 16.0934 0 0
2:56 am 02:56 Clear 58 14.4 49 9.4 72 72 W 7 11 30.08 1019 10 16.0934 0 0
3:56 am 03:56 Clear 56 13.3 49 9.4 77 77 WSW 6 9 30.08 1019 10 16.0934 0 0
4:56 am 04:56 Clear 54 12.2 49 9.4 83 83 SW 5 7 30.08 1019 10 16.0934 0 0
5:56 am 05:56 Clear 53 11.7 49 9.4 86 86 SW 6 9 30.09 1019 10 16.0934 0 0
6:56 am 06:56 Sunny 55 12.8 50 10 83 83 SW 8 13 30.11 1020 10 16.0934 0 0
7:56 am 07:56 Sunny 59 15 51 10.6 75 75 SW 6 9 30.12 1020 10 16.0934 0 0
8:56 am 08:56 Sunny 63 17.2 53 11.7 70 70 SSW 5 7 30.12 1020 10 16.0934 0 0
9:56 am 09:56 Sunny 69 20.6 49 9.4 49 49 W 17 28 30.11 1020 10 16.0934 0 0
10:56 am 10:56 Sunny 71 21.7 50 10 47 47 W 21 33 30.12 1020 10 16.0934 0 0
11:56 am 11:56 Sunny 72 22.2 50 10 46 46 W 24 39 30.11 1020 10 16.0934 0 0
12:56 pm 12:56 Partly Cloudy 74 23.3 53 11.7 48 48 W 20 31 30.11 1020 10 16.0934 0 0
1:56 pm 13:56 Partly Cloudy 74 23.3 50 10 43 43 W 16 26 30.11 1020 10 16.0934 0 0
2:56 pm 14:56 Partly Cloudy 74 23.3 50 10 43 43 W 21 33 30.1 1019 10 16.0934 0 0
3:56 pm 15:56 Partly Cloudy 74 23.3 50 10 43 43 W 21 33 30.1 1019 10 16.0934 0 0
4:56 pm 16:56 Mostly Sunny 73 22.8 49 9.4 43 43 W 16 26 30.1 1019 10 16.0934 0 0
5:56 pm 17:56 Mostly Sunny 72 22.2 48 8.9 43 43 NW 15 24 30.1 1019 10 16.0934 0 0
6:56 pm 18:56 Mostly Sunny 71 21.7 48 8.9 44 44 W 13 20 30.09 1019 10 16.0934 0 0
7:56 pm 19:56 Mostly Sunny 70 21.1 49 9.4 47 47 WNW 10 17 30.09 1019 10 16.0934 0 0
8:56 pm 20:56 Mostly Sunny 66 18.9 49 9.4 54 54 WNW 7 11 30.11 1020 10 16.0934 0 0
9:56 pm 21:56 Mostly Cloudy 62 16.7 52 11.1 70 70 W 3 6 30.11 1020 10 16.0934 0 0
10:56 pm 22:56 Mostly Cloudy 62 16.7 53 11.7 73 73 W 3 6 30.12 1020 10 16.0934 0 0
11:56 pm 23:56 Mostly Cloudy 60 15.6 53 11.7 78 78 WSW 5 7 30.12 1020 10 16.0934 0 0

Powered by AerisWeather